Погода в Субанге

Малайзия     3°09′32″N   101°31′10″E
темп.,
°C
ветер,
м/с
пор.,
м/с
влажн.,
%
обл.,
%
осадки,
мм/ч
давл.,
гПа
погр.,
м
9 марта, вт
вт923:00+25всв118622 0.1 101325
02:00+24всв118813 0.3 101224
05:00+23ссв129189 0.0 101133
08:00+23св128694 0.0 101262
11:00+32с125395 0.0 10131102
14:00+36ссз143381 0.0 10102249
17:00+33сз34393 0.0 10081718
20:00+25зюз128618 0.0 100946
10 марта, ср
ср1023:00+24ссв11914 0.8 101324
02:00+23св11912 0.8 101224
05:00+22св128952 0.0 101128
08:00+23всв118735 0.0 101337
11:00+32в005066 0.0 10141101
14:00+37ссз123133 0.0 10102245
17:00+32з434633 0.0 10081014
20:00+25ссз118116 0.0 101042
11 марта, чт
чт1123:00+24всв128620 0.1 101227
02:00+24всв118529 0.1 101224
05:00+23св118555 0.0 101025
08:00+24всв118473 0.0 101237
11:00+33вюв014847 0.0 10131172
14:00+33з334640 0.0 10101342
17:00+27з1481100 1.8 1008179
20:00+25зюз0090100 6.4 101024
12 марта, пт
пт1223:00+24в1189100 1.7 101224
02:00+23св129287 1.8 101226
05:00+22св129242 0.0 101025
08:00+23всв128968 0.0 101238
11:00+32св0153100 0.0 1013755
14:00+36всв0237100 0.0 10102129
17:00+30з2361100 0.1 1008428
20:00+25з1184100 1.4 101024
13 марта, сб
сб1323:00+25св1285100 0.5 101226
02:00+24св118694 0.6 101224
05:00+23св128897 0.1 101028
08:00+24всв118485 0.1 101240
11:00+31в0155100 0.0 1013787
14:00+35с1142100 0.0 10101699
17:00+30зсз236371 0.9 1008848
20:00+26сз128478 3.6 101055